Corsicana, TX

2:20 PM CST on December 12, 2017 (GMT -0600)
Campbell-Corsicana Municipal

Weather History for KCRS - May, 2014

Change the Weather History Date:

Monday, May 12, 2014

  Actual Average (KTYR) Record (KTYR)
Temperature  
Mean Temperature 72 °F -  
Max Temperature 82 °F 81 °F 94 °F (1896)
Min Temperature 64 °F 61 °F 37 °F (1960)
Cooling Degree Days 8    
Growing Degree Days 22 (Base 50)    
Moisture  
Dew Point 67 °F    
Average Humidity 84    
Maximum Humidity 97    
Minimum Humidity 70    
Precipitation  
Precipitation 1.03 in - - ()
Sea Level Pressure  
Sea Level Pressure 29.88 in    
Wind  
Wind Speed 13 mph (South)    
Max Wind Speed 25 mph    
Max Gust Speed 34 mph    
Visibility 7 miles    
Events Rain , Thunderstorm    
Averages and records for this station are not official NWS values.
T = Trace of Precipitation, MM = Missing Value Source: NWS Daily Summary

Daily Weather History Graph

Daily Weather History Graph

Search for Another Location

Airport or City:

Trip Planner

Search our weather history database for the weather conditions in past years. The results will help you decide how hot, cold, wet, or windy it might be!

Date:

Astronomy

May. 12, 2014 Rise Set
Actual Time 6:30 AM CDT 8:14 PM CDT
Civil Twilight 6:03 AM CDT 8:40 PM CDT
Nautical Twilight 5:31 AM CDT 9:12 PM CDT
Astronomical Twilight 4:57 AM CDT 9:46 PM CDT
Moon 6:20 PM CDT 5:01 AM CDT
Length of Visible Light 14h 37m
Length of Day
13h 43m
Waxing Gibbous, 95% of the Moon is Illuminated
May 12
Waxing Gibbous
May 14
Full
May 21
Last Quarter
May 28
New
Jun 5
First Quarter

Hourly Weather History & Observations

Time (CDT) Temp. Heat Index Dew Point Humidity Pressure Visibility Wind Dir Wind Speed Gust Speed Precip Events Conditions
12:26 AM 77.0 °F - 69.1 °F 76% 29.81 in 10.0 mi SSE 19.6 mph - N/A   Mostly Cloudy
12:53 AM 77.0 °F - 69.1 °F 76% 29.80 in 10.0 mi SSE 19.6 mph 24.2 mph N/A   Overcast
1:53 AM 75.9 °F - 70.0 °F 82% 29.78 in 10.0 mi South 16.1 mph - N/A   Mostly Cloudy
2:16 AM 75.9 °F - 70.0 °F 82% 29.80 in 9.0 mi South 16.1 mph - N/A   Overcast
2:53 AM 75.9 °F - 70.0 °F 82% 29.78 in 9.0 mi SSE 15.0 mph - N/A   Overcast
3:53 AM 75.9 °F - 70.0 °F 82% 29.76 in 8.0 mi South 11.5 mph - N/A   Mostly Cloudy
4:53 AM 75.9 °F - 70.0 °F 82% 29.79 in 8.0 mi South 12.7 mph - N/A   Overcast
5:08 AM 75.9 °F - 70.0 °F 82% 29.80 in - SSE 16.1 mph - N/A   Unknown
5:53 AM 77.0 °F - 70.0 °F 79% 29.80 in 8.0 mi SSE 15.0 mph - N/A   Overcast
6:43 AM 77.0 °F - 71.1 °F 82% 29.82 in 8.0 mi SSE 13.8 mph - N/A   Mostly Cloudy
6:53 AM 77.0 °F - 71.1 °F 82% 29.81 in 7.0 mi SSE 16.1 mph - N/A   Mostly Cloudy
7:06 AM 77.0 °F - 71.1 °F 82% 29.82 in 7.0 mi SSE 13.8 mph - N/A   Overcast
7:18 AM 77.0 °F - 71.1 °F 82% 29.82 in 6.0 mi SSE 12.7 mph 23.0 mph N/A   Haze
7:53 AM 77.0 °F - 71.1 °F 82% 29.82 in 6.0 mi SSE 13.8 mph - N/A   Haze
9:53 AM 77.0 °F - 70.0 °F 79% 29.90 in 8.0 mi South 6.9 mph - 0.00 in Rain Light Rain
10:00 AM 77.0 °F - 71.1 °F 82% 29.91 in 2.5 mi SSW 4.6 mph - 0.01 in Rain Heavy Rain
10:08 AM 75.9 °F - 71.1 °F 85% 29.92 in 2.5 mi SSW 5.8 mph - 0.01 in Rain Light Rain
10:15 AM 75.9 °F - 71.1 °F 85% 29.92 in 6.0 mi South 5.8 mph - 0.01 in Rain Light Rain
10:53 AM 78.1 °F - 71.1 °F 79% 29.91 in 10.0 mi SE 12.7 mph - 0.01 in   Mostly Cloudy
11:53 AM 78.1 °F - 70.0 °F 76% 29.92 in 10.0 mi SSE 13.8 mph - 0.00 in   Overcast
12:15 PM 79.0 °F - 70.0 °F 74% 29.92 in 10.0 mi SSE 12.7 mph - 0.00 in Rain , Thunderstorm Light Rain
12:53 PM 77.0 °F - 71.1 °F 82% 29.90 in 10.0 mi SE 11.5 mph - 0.00 in Rain , Thunderstorm Light Rain
1:26 PM 75.9 °F - 72.0 °F 87% 29.90 in 8.0 mi SE 8.1 mph - 0.00 in Rain Light Rain
1:53 PM 77.0 °F - 72.0 °F 84% 29.87 in 9.0 mi SSE 9.2 mph - 0.00 in   Overcast
2:26 PM 80.1 °F 83.8 °F 72.0 °F 76% 29.86 in 10.0 mi SSE 9.2 mph - N/A   Mostly Cloudy
2:53 PM 80.1 °F 83.6 °F 71.1 °F 74% 29.84 in 10.0 mi SSE 12.7 mph - N/A   Clear
3:53 PM 81.0 °F 84.9 °F 71.1 °F 72% 29.84 in 9.0 mi SSE 13.8 mph - N/A   Mostly Cloudy
4:53 PM 81.0 °F 84.9 °F 71.1 °F 72% 29.82 in 8.0 mi South 11.5 mph - N/A   Clear
5:34 PM 72.0 °F - 63.0 °F 73% 29.89 in 9.0 mi NW 18.4 mph 26.5 mph N/A Thunderstorm Overcast
5:53 PM 71.1 °F - 61.0 °F 70% 29.93 in 10.0 mi NW 25.3 mph 33.4 mph N/A Thunderstorm Overcast
6:08 PM 66.0 °F - 62.1 °F 87% 29.93 in 4.0 mi WNW 15.0 mph 31.1 mph 0.05 in Rain , Thunderstorm Rain
6:14 PM 64.9 °F - 62.1 °F 90% 29.92 in 2.5 mi NW 17.3 mph 34.5 mph 0.11 in Rain , Thunderstorm Heavy Thunderstorms and Rain
6:23 PM 64.9 °F - 62.1 °F 90% 29.91 in 1.5 mi NW 12.7 mph 24.2 mph 0.23 in Rain , Thunderstorm Heavy Thunderstorms and Rain
6:53 PM 64.9 °F - 62.1 °F 90% 29.91 in 1.8 mi WSW 6.9 mph 20.7 mph 0.64 in Rain , Thunderstorm Heavy Thunderstorms and Rain
7:04 PM 64.9 °F - 62.1 °F 90% 29.91 in 2.0 mi West 9.2 mph - 0.08 in Rain , Thunderstorm Heavy Thunderstorms and Rain
7:23 PM 64.9 °F - 62.1 °F 90% 29.89 in 2.5 mi Calm Calm - 0.19 in Rain , Thunderstorm Rain
7:32 PM 64.9 °F - 62.1 °F 90% 29.87 in 2.5 mi Calm Calm - 0.22 in Rain , Thunderstorm Heavy Thunderstorms and Rain
7:41 PM 64.9 °F - 62.1 °F 90% 29.87 in 6.0 mi SSW 6.9 mph - 0.23 in Rain , Thunderstorm Light Thunderstorms and Rain
7:53 PM 64.9 °F - 63.0 °F 93% 29.86 in 9.0 mi SW 3.5 mph - 0.24 in Rain , Thunderstorm Light Rain
8:10 PM 64.9 °F - 63.0 °F 93% 29.87 in 10.0 mi East 3.5 mph - 0.00 in Rain , Thunderstorm Light Thunderstorms and Rain
8:25 PM 64.9 °F - 63.0 °F 93% 29.89 in 10.0 mi Calm Calm - 0.00 in Rain Light Rain
8:53 PM 64.9 °F - 63.0 °F 93% 29.92 in 10.0 mi WSW 13.8 mph - 0.01 in Rain Light Rain
9:01 PM 64.9 °F - 63.0 °F 93% 29.92 in 7.0 mi West 10.4 mph - 0.02 in Rain Rain
9:42 PM 64.9 °F - 63.0 °F 93% 29.93 in 4.0 mi WNW 5.8 mph - 0.09 in Rain , Thunderstorm Thunderstorms and Rain
10:04 PM 64.9 °F - 63.0 °F 93% 29.93 in 6.0 mi NNE 9.2 mph - 0.02 in Rain Rain
10:30 PM 64.9 °F - 64.0 °F 97% 29.97 in 9.0 mi East 4.6 mph - 0.05 in Rain Rain
10:43 PM 66.0 °F - 63.0 °F 90% 29.96 in 9.0 mi NNE 5.8 mph - 0.06 in Rain Light Rain
10:50 PM 64.4 °F - 62.6 °F 94% 29.96 in 10.0 mi NNE 5.8 mph - 0.06 in Rain Light Rain
10:53 PM 66.0 °F - 63.0 °F 90% 29.96 in 10.0 mi NNE 5.8 mph - 0.06 in Rain Light Rain
11:46 PM 64.9 °F - 63.0 °F 93% 29.99 in 4.0 mi North 8.1 mph - 0.05 in Rain Rain
11:53 PM 64.9 °F - 63.0 °F 93% 30.02 in 4.0 mi WNW 12.7 mph - 0.07 in Rain Rain